CMP380 MGGT-MNMG

Flight info

Callsign CMP380
Flight time 0h 50m
Altitude 35000
Route VILDA2 KAPAN UG436 CAT UA317 URPOS
Aircraft B38M/M-SDE1FGHILORVWXY/HB1

Departure

Time 2026-05-07 21:20
Airport La Aurora International Airport (MGGT)

Arrival

Time 2026-05-07 22:10
Airport Augusto C. Sandino (Managua) International Airport (MNMG)
Time Latitude Longitude Altitude Speed Heading
2026-05-07 20:56 14.58896 -90.52898 4901 ft 0 kts 288°
2026-05-07 21:13 14.58895 -90.52894 4930 ft 1 kts 288°
2026-05-07 21:13 14.58893 -90.52889 4903 ft 1 kts 288°
2026-05-07 21:13 14.58892 -90.52884 4903 ft 1 kts 288°
2026-05-07 21:13 14.58890 -90.52879 4897 ft 1 kts 288°
2026-05-07 21:14 14.58888 -90.52872 4895 ft 2 kts 288°
2026-05-07 21:14 14.58884 -90.52858 4893 ft 2 kts 288°
2026-05-07 21:14 14.58879 -90.52844 4898 ft 2 kts 288°
2026-05-07 21:14 14.58871 -90.52828 4894 ft 3 kts 319°
2026-05-07 21:15 14.58854 -90.52820 4894 ft 3 kts 356°
2026-05-07 21:15 14.58849 -90.52819 4894 ft 0 kts
2026-05-07 21:17 14.58858 -90.52805 4894 ft 6 kts 74°
2026-05-07 21:17 14.58809 -90.52741 4902 ft 18 kts 130°
2026-05-07 21:18 14.58851 -90.52649 4899 ft 18 kts 17°
2026-05-07 21:18 14.58991 -90.52600 4904 ft 26 kts 22°
2026-05-07 21:18 14.59192 -90.52539 4917 ft 35 kts 17°
2026-05-07 21:18 14.59449 -90.52459 4924 ft 31 kts 17°
2026-05-07 21:19 14.59565 -90.52415 4927 ft 14 kts 43°
2026-05-07 21:19 14.59537 -90.52366 4927 ft 12 kts 186°
2026-05-07 21:19 14.59393 -90.52404 4922 ft 47 kts 198°
2026-05-07 21:19 14.58861 -90.52573 4902 ft 110 kts 197°
2026-05-07 21:20 14.57956 -90.52860 4897 ft 158 kts 197°
2026-05-07 21:20 14.56838 -90.53217 5304 ft 174 kts 195°
2026-05-07 21:20 14.55626 -90.53302 5866 ft 186 kts 169°
2026-05-07 21:20 14.54275 -90.53014 6265 ft 209 kts 169°
2026-05-07 21:21 14.52832 -90.52685 6937 ft 213 kts 168°
2026-05-07 21:21 14.51374 -90.52340 7626 ft 218 kts 168°
2026-05-07 21:21 14.49850 -90.52018 8189 ft 230 kts 167°
2026-05-07 21:21 14.48236 -90.51664 8721 ft 242 kts 168°
2026-05-07 21:22 14.46582 -90.51307 9406 ft 246 kts 159°
2026-05-07 21:22 14.45075 -90.50397 9835 ft 260 kts 133°
2026-05-07 21:22 14.44058 -90.48859 10474 ft 260 kts 115°
2026-05-07 21:22 14.43213 -90.47213 11115 ft 271 kts 117°
2026-05-07 21:23 14.42234 -90.45436 11307 ft 298 kts 119°
2026-05-07 21:23 14.41093 -90.43628 11939 ft 306 kts 121°
2026-05-07 21:23 14.39884 -90.41736 12284 ft 326 kts 122°
2026-05-07 21:23 14.38612 -90.39727 12653 ft 341 kts 121°
2026-05-07 21:24 14.37296 -90.37638 13204 ft 351 kts 121°
2026-05-07 21:24 14.35960 -90.35508 13936 ft 357 kts 121°
2026-05-07 21:24 14.34602 -90.33345 14532 ft 362 kts 121°
2026-05-07 21:24 14.33247 -90.31185 15238 ft 364 kts 121°
2026-05-07 21:25 14.31873 -90.28995 15988 ft 365 kts 121°
2026-05-07 21:25 14.30482 -90.26780 16550 ft 371 kts 122°
2026-05-07 21:25 14.29077 -90.24540 17209 ft 372 kts 121°
2026-05-07 21:25 14.27670 -90.22300 17927 ft 372 kts 121°
2026-05-07 21:26 14.26265 -90.20065 18549 ft 374 kts 122°
2026-05-07 21:26 14.24841 -90.17796 19039 ft 377 kts 121°
2026-05-07 21:26 14.23422 -90.15536 19653 ft 377 kts 121°
2026-05-07 21:26 14.22007 -90.13283 20082 ft 381 kts 122°
2026-05-07 21:27 14.20562 -90.10986 20553 ft 385 kts 122°
2026-05-07 21:27 14.19097 -90.08659 21003 ft 387 kts 122°
2026-05-07 21:27 14.17629 -90.06326 21473 ft 391 kts 122°
2026-05-07 21:27 14.16145 -90.03967 21908 ft 394 kts 122°
2026-05-07 21:28 14.14649 -90.01592 22360 ft 396 kts 122°
2026-05-07 21:28 14.13144 -89.99201 22837 ft 399 kts 122°
2026-05-07 21:28 14.11632 -89.96801 23269 ft 401 kts 122°
2026-05-07 21:28 14.10106 -89.94379 23712 ft 403 kts 122°
2026-05-07 21:29 14.08597 -89.91985 24072 ft 405 kts 122°
2026-05-07 21:29 14.07059 -89.89545 24413 ft 408 kts 122°
2026-05-07 21:29 14.05504 -89.87093 24778 ft 410 kts 124°
2026-05-07 21:29 14.03716 -89.84795 25126 ft 412 kts 129°
2026-05-07 21:30 14.01888 -89.82510 25485 ft 414 kts 128°
2026-05-07 21:30 14.00064 -89.80202 25838 ft 417 kts 128°
2026-05-07 21:30 13.98238 -89.77873 26199 ft 419 kts 128°
2026-05-07 21:30 13.96410 -89.75534 26558 ft 420 kts 128°
2026-05-07 21:31 13.94580 -89.73188 26989 ft 420 kts 128°
2026-05-07 21:31 13.92772 -89.70871 27405 ft 420 kts 128°
2026-05-07 21:31 13.90944 -89.68528 27876 ft 419 kts 128°
2026-05-07 21:31 13.89120 -89.66191 28358 ft 419 kts 128°
2026-05-07 21:32 13.87296 -89.63855 28850 ft 418 kts 128°
2026-05-07 21:32 13.85480 -89.61532 29338 ft 417 kts 128°
2026-05-07 21:32 13.83654 -89.59217 29867 ft 416 kts 128°
2026-05-07 21:32 13.81834 -89.56910 30322 ft 415 kts 128°
2026-05-07 21:33 13.80024 -89.54613 30738 ft 414 kts 128°
2026-05-07 21:33 13.78211 -89.52314 31089 ft 413 kts 128°
2026-05-07 21:33 13.76425 -89.50049 31464 ft 413 kts 128°
2026-05-07 21:33 13.74617 -89.47757 31893 ft 412 kts 128°
2026-05-07 21:34 13.72817 -89.45476 32291 ft 411 kts 128°
2026-05-07 21:34 13.71016 -89.43194 32643 ft 411 kts 128°
2026-05-07 21:34 13.67332 -89.38529 32672 ft 430 kts 128°
2026-05-07 21:35 13.65451 -89.36147 33060 ft 428 kts 128°
2026-05-07 21:35 13.63576 -89.33775 33435 ft 428 kts 128°
2026-05-07 21:35 13.61702 -89.31403 33856 ft 426 kts 128°
2026-05-07 21:35 13.59863 -89.29076 34210 ft 425 kts 128°
2026-05-07 21:36 13.57988 -89.26706 34402 ft 429 kts 128°
2026-05-07 21:36 13.56107 -89.24327 34697 ft 428 kts 128°
2026-05-07 21:36 13.54228 -89.21954 34959 ft 429 kts 128°
2026-05-07 21:36 13.52337 -89.19565 34972 ft 434 kts 128°
2026-05-07 21:37 13.48460 -89.14669 34945 ft 450 kts 128°
2026-05-07 21:37 13.44449 -89.09603 34923 ft 464 kts 128°
2026-05-07 21:38 13.42747 -89.06847 34898 ft 461 kts 114°
2026-05-07 21:38 13.41484 -89.03852 34871 ft 456 kts 115°
2026-05-07 21:38 13.38837 -88.97969 34893 ft 453 kts 114°
2026-05-07 21:39 13.36253 -88.92086 34878 ft 452 kts 114°
2026-05-07 21:39 13.33671 -88.86181 34846 ft 454 kts 114°
2026-05-07 21:40 13.31111 -88.80325 34843 ft 451 kts 114°
2026-05-07 21:40 13.28537 -88.74442 34829 ft 453 kts 114°
2026-05-07 21:41 13.25953 -88.68540 34824 ft 453 kts 114°
2026-05-07 21:41 13.23377 -88.62661 34825 ft 452 kts 114°
2026-05-07 21:42 13.20813 -88.56815 34813 ft 454 kts 114°
2026-05-07 21:42 13.18227 -88.50921 34836 ft 451 kts 114°
2026-05-07 21:43 13.15650 -88.45054 34835 ft 452 kts 114°
2026-05-07 21:43 13.13070 -88.39183 34833 ft 451 kts 114°
2026-05-07 21:44 13.10495 -88.33327 34828 ft 451 kts 114°
2026-05-07 21:44 13.07925 -88.27488 34827 ft 453 kts 114°
2026-05-07 21:45 13.05334 -88.21606 34851 ft 451 kts 114°
2026-05-07 21:45 13.02749 -88.15739 34852 ft 452 kts 114°
2026-05-07 21:46 13.00154 -88.09855 34851 ft 453 kts 114°
2026-05-07 21:46 12.97594 -88.04055 34846 ft 449 kts 114°
2026-05-07 21:47 12.95016 -87.98218 34846 ft 451 kts 114°
2026-05-07 21:47 12.92425 -87.92357 34849 ft 451 kts 114°
2026-05-07 21:48 12.89844 -87.86522 34726 ft 449 kts 114°
2026-05-07 21:48 12.88553 -87.83604 33957 ft 451 kts 114°
2026-05-07 21:48 12.87261 -87.80696 33040 ft 446 kts 114°
2026-05-07 21:49 12.85997 -87.77860 32176 ft 440 kts 114°
2026-05-07 21:49 12.84738 -87.75033 31358 ft 434 kts 114°
2026-05-07 21:49 12.83494 -87.72243 30572 ft 427 kts 114°
2026-05-07 21:49 12.82263 -87.69480 29976 ft 430 kts 114°
2026-05-07 21:50 12.81002 -87.66653 29375 ft 440 kts 114°
2026-05-07 21:50 12.79730 -87.63802 28759 ft 441 kts 114°
2026-05-07 21:50 12.78455 -87.60944 28162 ft 440 kts 114°
2026-05-07 21:50 12.77186 -87.58102 27579 ft 437 kts 114°
2026-05-07 21:51 12.75927 -87.55282 27003 ft 434 kts 114°
2026-05-07 21:51 12.74694 -87.52522 26450 ft 430 kts 114°
2026-05-07 21:51 12.73455 -87.49749 25899 ft 427 kts 114°
2026-05-07 21:51 12.72225 -87.46997 25358 ft 423 kts 113°
2026-05-07 21:52 12.71003 -87.44265 24825 ft 420 kts 113°
2026-05-07 21:52 12.69794 -87.41561 24304 ft 417 kts 113°
2026-05-07 21:52 12.68591 -87.38873 23796 ft 413 kts 113°
2026-05-07 21:52 12.67396 -87.36203 23267 ft 411 kts 113°
2026-05-07 21:53 12.66213 -87.33561 22666 ft 407 kts 113°
2026-05-07 21:53 12.65035 -87.30931 22066 ft 404 kts 113°
2026-05-07 21:53 12.63866 -87.28321 21483 ft 402 kts 113°
2026-05-07 21:53 12.62721 -87.25765 20916 ft 400 kts 114°
2026-05-07 21:54 12.61549 -87.23151 20405 ft 410 kts 114°
2026-05-07 21:54 12.60357 -87.20491 19767 ft 411 kts 114°
2026-05-07 21:54 12.59152 -87.17805 18733 ft 420 kts 114°
2026-05-07 21:54 12.57921 -87.15060 17762 ft 427 kts 114°
2026-05-07 21:55 12.56684 -87.12306 17113 ft 423 kts 114°
2026-05-07 21:55 12.55386 -87.09623 16372 ft 421 kts 120°
2026-05-07 21:55 12.53887 -87.07080 15801 ft 415 kts 120°
2026-05-07 21:55 12.52423 -87.04556 15191 ft 411 kts 120°
2026-05-07 21:56 12.51013 -87.02100 14990 ft 403 kts 119°
2026-05-07 21:56 12.49590 -86.99610 14838 ft 407 kts 119°
2026-05-07 21:56 12.48173 -86.97123 14454 ft 403 kts 119°
2026-05-07 21:56 12.46757 -86.94638 13705 ft 405 kts 119°
2026-05-07 21:57 12.45344 -86.92156 13039 ft 398 kts 118°
2026-05-07 21:57 12.43984 -86.89770 12467 ft 379 kts 118°
2026-05-07 21:57 12.42682 -86.87487 11896 ft 364 kts 118°
2026-05-07 21:57 12.41445 -86.85317 11344 ft 352 kts 117°
2026-05-07 21:58 12.40236 -86.83197 10784 ft 341 kts 118°
2026-05-07 21:58 12.39055 -86.81127 10232 ft 333 kts 117°
2026-05-07 21:58 12.37905 -86.79107 9684 ft 325 kts 118°
2026-05-07 21:58 12.36774 -86.77130 9078 ft 318 kts 118°
2026-05-07 21:59 12.35667 -86.75191 8490 ft 313 kts 118°
2026-05-07 21:59 12.34580 -86.73288 7903 ft 308 kts 118°
2026-05-07 21:59 12.33514 -86.71421 7432 ft 300 kts 118°
2026-05-07 21:59 12.32480 -86.69612 7076 ft 289 kts 117°
2026-05-07 22:00 12.31485 -86.67869 6744 ft 278 kts 117°
2026-05-07 22:00 12.30541 -86.66216 6450 ft 268 kts 117°
2026-05-07 22:00 12.29618 -86.64601 6163 ft 258 kts 117°
2026-05-07 22:00 12.28731 -86.63051 5914 ft 248 kts 117°
2026-05-07 22:01 12.27880 -86.61563 5662 ft 237 kts 117°
2026-05-07 22:01 12.27065 -86.60136 5434 ft 227 kts 117°
2026-05-07 22:01 12.26278 -86.58759 5098 ft 223 kts 117°
2026-05-07 22:01 12.25501 -86.57399 4720 ft 220 kts 118°
2026-05-07 22:02 12.24732 -86.56054 4319 ft 218 kts 117°
2026-05-07 22:02 12.23990 -86.54757 4165 ft 209 kts 117°
2026-05-07 22:02 12.23250 -86.53461 4115 ft 212 kts 116°
2026-05-07 22:02 12.22505 -86.52158 4032 ft 214 kts 117°
2026-05-07 22:03 12.21749 -86.50838 4013 ft 220 kts 117°
2026-05-07 22:03 12.20956 -86.49450 4005 ft 229 kts 117°
2026-05-07 22:03 12.20143 -86.48030 4005 ft 234 kts 117°
2026-05-07 22:03 12.19319 -86.46592 4009 ft 234 kts 117°
2026-05-07 22:04 12.18497 -86.45157 4007 ft 233 kts 116°
2026-05-07 22:04 12.17681 -86.43731 4005 ft 232 kts 117°
2026-05-07 22:04 12.17114 -86.42214 3830 ft 226 kts 97°
2026-05-07 22:04 12.16909 -86.40623 3650 ft 228 kts 96°
2026-05-07 22:05 12.16716 -86.39077 3573 ft 213 kts 95°
2026-05-07 22:05 12.16545 -86.37674 3576 ft 184 kts 95°
2026-05-07 22:05 12.16401 -86.36461 3445 ft 163 kts 95°
2026-05-07 22:05 12.16271 -86.35352 3145 ft 156 kts 95°
2026-05-07 22:06 12.16142 -86.34238 3014 ft 160 kts 95°
2026-05-07 22:06 12.16010 -86.33102 2958 ft 162 kts 95°
2026-05-07 22:06 12.15863 -86.31967 2779 ft 162 kts 97°
2026-05-07 22:06 12.15721 -86.30814 2615 ft 164 kts 97°
2026-05-07 22:07 12.15589 -86.29677 2403 ft 163 kts 97°
2026-05-07 22:07 12.15459 -86.28524 2204 ft 163 kts 97°
2026-05-07 22:07 12.15331 -86.27386 1980 ft 160 kts 98°
2026-05-07 22:07 12.15213 -86.26319 1804 ft 139 kts 99°
2026-05-07 22:08 12.15107 -86.25374 1622 ft 131 kts 100°
2026-05-07 22:08 12.15001 -86.24452 1421 ft 129 kts 99°
2026-05-07 22:08 12.14900 -86.23556 1251 ft 126 kts 98°
2026-05-07 22:08 12.14800 -86.22671 1104 ft 124 kts 96°
2026-05-07 22:09 12.14709 -86.21785 932 ft 129 kts 95°
2026-05-07 22:09 12.14610 -86.20870 813 ft 134 kts 96°
2026-05-07 22:09 12.14508 -86.19902 623 ft 139 kts 97°
2026-05-07 22:09 12.14397 -86.18925 436 ft 135 kts 99°
2026-05-07 22:10 12.14288 -86.17996 249 ft 130 kts 96°
2026-05-07 22:10 12.14195 -86.17167 198 ft 76 kts 96°
2026-05-07 22:10 12.14151 -86.16785 198 ft 29 kts 97°
2026-05-07 22:10 12.14145 -86.16627 198 ft 15 kts 59°
2026-05-07 22:11 12.14240 -86.16631 198 ft 16 kts 336°
2026-05-07 22:11 12.14282 -86.16733 198 ft 18 kts 277°
2026-05-07 22:11 12.14298 -86.16863 198 ft 20 kts 277°
2026-05-07 22:11 12.14320 -86.16994 206 ft 16 kts 306°
2026-05-07 22:12 12.14359 -86.17013 206 ft 5 kts
2026-05-07 22:12 12.14366 -86.17013 207 ft 0 kts